• In Denmark
  • List of Countries
  • For 7 days
  • Water Temperature
  • Satellite Maps
  • Weather Map
  • Weather Widgets
  • user-avatar
    Login

    Hourly Weather Abovyan

    Today, 24 June, Sunday

    Time Temperature Precipitation Wind Pressure Humidity
    00:00 +19°C° 0.3 mm 2 mps 670 mmHg 72%
    01:00 +18°C° 0.1 mm 2 mps 670 mmHg 73%
    02:00 +18°C° 0.1 mm 2 mps 670 mmHg 74%
    03:00 +18°C° 0 mm 2 mps 670 mmHg 74%
    04:00 +19°C° 0.1 mm 2 mps 670 mmHg 73%
    05:00 +19°C° 0.1 mm 2 mps 670 mmHg 71%
    06:00 +20°C° 0.1 mm 2 mps 671 mmHg 69%
    07:00 +23°C° 0 mm 1 mps 671 mmHg 63%
    08:00 +25°C° 0 mm 1 mps 671 mmHg 57%
    09:00 +27°C° 0 mm 1 mps 671 mmHg 51%
    10:00 +28°C° 0.3 mm 1 mps 671 mmHg 48%
    11:00 +29°C° 0.3 mm 2 mps 671 mmHg 46%
    12:00 +30°C° 0.3 mm 2 mps 671 mmHg 43%
    13:00 +30°C° 0.5 mm 2 mps 671 mmHg 42%
    14:00 +31°C° 0.5 mm 2 mps 671 mmHg 41%
    15:00 +31°C° 0.5 mm 2 mps 671 mmHg 40%
    16:00 +30°C° 0.6 mm 2 mps 671 mmHg 43%
    17:00 +30°C° 0.6 mm 2 mps 671 mmHg 46%
    18:00 +29°C° 0.6 mm 2 mps 671 mmHg 49%
    19:00 +27°C° 0.6 mm 2 mps 671 mmHg 55%
    20:00 +25°C° 0.6 mm 2 mps 671 mmHg 61%
    21:00 +23°C° 0.6 mm 2 mps 671 mmHg 67%
    22:00 +21°C° 0.7 mm 3 mps 671 mmHg 69%
    23:00 +21°C° 0.7 mm 3 mps 671 mmHg 71%

    Tomorrow, 25 June, Monday

    Time Temperature Precipitation Wind Pressure Humidity
    00:00 +20°C° 0.7 mm 3 mps 671 mmHg 73%
    01:00 +20°C° 0.1 mm 3 mps 671 mmHg 74%
    02:00 +20°C° 0.1 mm 2 mps 671 mmHg 75%
    03:00 +19°C° 0.1 mm 2 mps 671 mmHg 76%
    04:00 +20°C° 0 mm 2 mps 671 mmHg 75%
    05:00 +20°C° 0 mm 2 mps 672 mmHg 73%
    06:00 +21°C° 0 mm 2 mps 672 mmHg 71%
    07:00 +24°C° 0 mm 2 mps 672 mmHg 65%
    08:00 +25°C° 0 mm 2 mps 672 mmHg 58%
    09:00 +27°C° 0 mm 2 mps 672 mmHg 51%
    10:00 +29°C° 0.1 mm 2 mps 672 mmHg 48%
    11:00 +30°C° 0.1 mm 2 mps 672 mmHg 45%
    12:00 +31°C° 0.1 mm 2 mps 672 mmHg 41%
    13:00 +31°C° 0.1 mm 2 mps 672 mmHg 41%
    14:00 +32°C° 0.1 mm 2 mps 671 mmHg 40%
    15:00 +33°C° 0.1 mm 3 mps 671 mmHg 40%
    16:00 +31°C° 0.4 mm 3 mps 671 mmHg 43%
    17:00 +31°C° 0.4 mm 3 mps 671 mmHg 47%
    18:00 +30°C° 0.4 mm 3 mps 671 mmHg 51%
    19:00 +28°C° 0.4 mm 3 mps 671 mmHg 56%
    20:00 +26°C° 0.4 mm 3 mps 671 mmHg 62%
    21:00 +24°C° 0.4 mm 3 mps 671 mmHg 67%
    22:00 +24°C° 0.1 mm 3 mps 671 mmHg 68%
    23:00 +22°C° 0.1 mm 3 mps 671 mmHg 68%

    Day after tomorrow, 26 June, Tuesday

    Time Temperature Precipitation Wind Pressure Humidity
    00:00 +23°C° 0.1 mm 2 mps 671 mmHg 68%
    01:00 +21°C° 0 mm 2 mps 671 mmHg 69%
    02:00 +21°C° 0 mm 2 mps 671 mmHg 69%
    03:00 +20°C° 0 mm 2 mps 670 mmHg 70%
    04:00 +21°C° 0 mm 2 mps 671 mmHg 69%
    05:00 +21°C° 0 mm 2 mps 671 mmHg 67%
    06:00 +23°C° 0 mm 2 mps 671 mmHg 66%
    07:00 +25°C° 0 mm 2 mps 671 mmHg 60%
    08:00 +26°C° 0 mm 2 mps 671 mmHg 54%
    09:00 +28°C° 0 mm 1 mps 671 mmHg 48%
    10:00 +30°C° 0 mm 2 mps 671 mmHg 45%
    11:00 +31°C° 0 mm 2 mps 671 mmHg 42%
    12:00 +32°C° 0 mm 2 mps 671 mmHg 39%
    13:00 +32°C° 0 mm 2 mps 670 mmHg 38%
    14:00 +34°C° 0 mm 2 mps 670 mmHg 37%
    15:00 +34°C° 0 mm 2 mps 670 mmHg 36%
    16:00 +34°C° 0 mm 2 mps 670 mmHg 39%
    17:00 +33°C° 0 mm 3 mps 669 mmHg 42%
    18:00 +31°C° 0 mm 3 mps 669 mmHg 46%
    19:00 +29°C° 0.1 mm 3 mps 669 mmHg 52%
    20:00 +27°C° 0.1 mm 3 mps 669 mmHg 59%
    21:00 +25°C° 0.1 mm 3 mps 670 mmHg 65%
    22:00 +24°C° 0 mm 3 mps 669 mmHg 65%
    23:00 +23°C° 0 mm 2 mps 669 mmHg 64%

    27 June, Wednesday

    Time Temperature Precipitation Wind Pressure Humidity
    00:00 +23°C° 0 mm 2 mps 669 mmHg 64%
    01:00 +21°C° 0 mm 2 mps 669 mmHg 63%
    02:00 +21°C° 0 mm 2 mps 669 mmHg 63%
    03:00 +21°C° 0 mm 2 mps 669 mmHg 63%
    04:00 +21°C° 0 mm 2 mps 669 mmHg 62%
    05:00 +23°C° 0 mm 2 mps 670 mmHg 61%
    06:00 +24°C° 0 mm 1 mps 670 mmHg 60%
    07:00 +26°C° 0 mm 1 mps 670 mmHg 54%
    08:00 +28°C° 0 mm 1 mps 670 mmHg 48%
    09:00 +30°C° 0 mm 1 mps 671 mmHg 42%
    10:00 +31°C° 0 mm 1 mps 671 mmHg 39%
    11:00 +32°C° 0 mm 1 mps 671 mmHg 36%
    12:00 +34°C° 0 mm 2 mps 670 mmHg 34%
    13:00 +35°C° 0 mm 2 mps 670 mmHg 33%
    14:00 +35°C° 0 mm 2 mps 670 mmHg 32%
    15:00 +36°C° 0 mm 2 mps 670 mmHg 31%
    16:00 +35°C° 0 mm 2 mps 670 mmHg 35%
    17:00 +34°C° 0 mm 2 mps 670 mmHg 38%
    18:00 +34°C° 0 mm 2 mps 669 mmHg 42%
    19:00 +30°C° 0.1 mm 3 mps 670 mmHg 49%
    20:00 +28°C° 0.1 mm 3 mps 670 mmHg 56%
    21:00 +26°C° 0.1 mm 3 mps 670 mmHg 63%
    22:00 +25°C° 0 mm 3 mps 670 mmHg 62%
    23:00 +24°C° 0 mm 3 mps 670 mmHg 62%

    28 June, Thursday

    Time Temperature Precipitation Wind Pressure Humidity
    00:00 +24°C° 0 mm 2 mps 670 mmHg 61%
    01:00 +23°C° 0 mm 2 mps 670 mmHg 61%
    02:00 +23°C° 0 mm 2 mps 670 mmHg 61%
    03:00 +21°C° 0 mm 2 mps 670 mmHg 61%
    04:00 +23°C° 0 mm 2 mps 670 mmHg 61%
    05:00 +23°C° 0 mm 2 mps 671 mmHg 60%
    06:00 +24°C° 0 mm 2 mps 671 mmHg 60%
    07:00 +26°C° 0 mm 2 mps 671 mmHg 55%
    08:00 +28°C° 0 mm 1 mps 672 mmHg 49%
    09:00 +30°C° 0 mm 1 mps 672 mmHg 44%
    10:00 +31°C° 0 mm 2 mps 672 mmHg 42%
    11:00 +32°C° 0 mm 2 mps 672 mmHg 40%
    12:00 +34°C° 0 mm 2 mps 671 mmHg 38%
    13:00 +35°C° 0 mm 2 mps 671 mmHg 37%
    14:00 +35°C° 0 mm 2 mps 671 mmHg 37%
    15:00 +36°C° 0 mm 3 mps 671 mmHg 36%
    16:00 +35°C° 0 mm 3 mps 671 mmHg 39%
    17:00 +34°C° 0 mm 3 mps 671 mmHg 43%
    18:00 +33°C° 0 mm 4 mps 670 mmHg 46%
    19:00 +30°C° 0.1 mm 3 mps 670 mmHg 51%
    20:00 +28°C° 0.1 mm 3 mps 671 mmHg 56%
    21:00 +26°C° 0.1 mm 3 mps 671 mmHg 62%
    22:00 +25°C° 0 mm 3 mps 671 mmHg 61%
    23:00 +24°C° 0 mm 3 mps 671 mmHg 60%

    29 June, Friday

    Time Temperature Precipitation Wind Pressure Humidity
    00:00 +24°C° 0 mm 2 mps 671 mmHg 59%
    01:00 +23°C° 0 mm 2 mps 671 mmHg 59%
    02:00 +23°C° 0 mm 2 mps 671 mmHg 59%
    03:00 +21°C° 0 mm 2 mps 671 mmHg 59%
    04:00 +23°C° 0 mm 2 mps 671 mmHg 58%
    05:00 +24°C° 0 mm 2 mps 671 mmHg 58%
    06:00 +25°C° 0 mm 1 mps 671 mmHg 57%
    07:00 +27°C° 0 mm 1 mps 671 mmHg 51%
    08:00 +29°C° 0 mm 2 mps 671 mmHg 45%
    09:00 +31°C° 0 mm 2 mps 671 mmHg 39%
    10:00 +32°C° 0 mm 2 mps 671 mmHg 37%
    11:00 +34°C° 0 mm 2 mps 671 mmHg 34%
    12:00 +36°C° 0 mm 2 mps 671 mmHg 31%
    13:00 +36°C° 0 mm 2 mps 671 mmHg 31%
    14:00 +37°C° 0 mm 2 mps 670 mmHg 30%
    15:00 +37°C° 0 mm 2 mps 670 mmHg 30%
    16:00 +36°C° 0 mm 2 mps 670 mmHg 34%
    17:00 +35°C° 0 mm 3 mps 670 mmHg 37%
    18:00 +35°C° 0 mm 3 mps 670 mmHg 41%
    19:00 +31°C° 0.1 mm 3 mps 670 mmHg 48%
    20:00 +29°C° 0.1 mm 3 mps 670 mmHg 54%
    21:00 +27°C° 0.1 mm 3 mps 670 mmHg 60%
    22:00 +26°C° 0 mm 3 mps 670 mmHg 60%
    23:00 +26°C° 0 mm 3 mps 670 mmHg 59%
    Show more